Date String (YYYY-MM-DD hh:mm:ss) UTC,Instrument flags,Ambient pressure (hPa),Sample flow (lpm),Bypass flow (lpm),Sample temperature (°C),Ambient temperature (°C),ASC tube jacket temperature (°C),LED temperature (°C),Box temperature (°C),Sample RH (%),Span deviation,Mass concentration (μg/m³),Mass concentration (μg/m³),Mass concentration (μg/m³)
DateTimeUTC,F1_M11,P_M11,Q1_M11,Q2_M11,T1_M11,T2_M11,T3_M11,T4_M11,T5_M11,U1_M11,ZSPAN_M11,X0_M11,X2_M11,X1_M11
2021-12-18 14:00:00,,0830.5,4.98,0.00,22.6,22.7,00.0,31.5,24.3,08.5,0000.0,0014.20,0005.37,0004.67
2021-12-18 14:01:00,,0830.5,5.00,0.00,22.5,22.4,00.0,31.5,24.2,08.5,0000.0,0014.23,0005.39,0004.68
2021-12-18 14:02:00,,0830.5,5.00,0.00,22.5,22.1,00.0,31.5,24.1,08.5,0000.0,0013.95,0005.40,0004.70
2021-12-18 14:03:00,,0830.6,5.01,0.00,22.4,21.9,00.0,31.4,24.0,08.5,0000.0,0013.62,0005.44,0004.71
2021-12-18 14:04:00,,0830.6,4.99,0.00,22.4,21.7,00.0,31.4,23.9,08.6,0000.0,0013.34,0005.44,0004.73
2021-12-18 14:05:00,,0830.6,5.02,0.00,22.3,21.6,00.0,31.4,23.8,08.6,0000.0,0011.91,0005.44,0004.75
2021-12-18 14:06:00,,0830.5,5.00,0.00,22.3,21.5,00.0,31.4,23.8,08.6,0000.0,0011.99,0005.44,0004.76
2021-12-18 14:07:00,,0830.5,4.99,0.00,22.3,21.9,00.0,31.4,23.9,08.6,0000.0,0011.53,0005.48,0004.78
2021-12-18 14:08:00,,0830.6,5.01,0.00,22.4,22.7,00.0,31.4,24.1,08.6,0000.0,0011.56,0005.53,0004.80
2021-12-18 14:09:00,,0830.6,5.00,0.00,22.5,23.4,00.0,31.5,24.4,08.5,0000.0,0011.35,0005.60,0004.83
2021-12-18 14:10:00,,0830.6,4.99,0.00,22.7,23.5,00.0,31.5,24.6,08.5,0000.0,0011.75,0005.66,0004.87
2021-12-18 14:11:00,,0830.6,5.01,0.00,22.7,23.1,00.0,31.5,24.5,08.5,0000.0,0011.84,0005.69,0004.89
2021-12-18 14:12:00,,0830.6,5.00,0.00,22.7,22.8,00.0,31.5,24.4,08.5,0000.0,0011.81,0005.74,0004.93
2021-12-18 14:13:00,,0830.6,5.00,0.00,22.6,22.5,00.0,31.5,24.3,08.5,0000.0,0011.51,0005.72,0004.95
2021-12-18 14:14:00,,0830.6,5.01,0.00,22.6,22.3,00.0,31.5,24.2,08.5,0000.0,0011.16,0005.68,0004.97
2021-12-18 14:15:00,,0830.5,4.99,0.00,22.6,22.1,00.0,31.5,24.1,08.6,0000.0,0011.11,0005.74,0004.99
2021-12-18 14:16:00,,0830.5,5.01,0.00,22.5,21.9,00.0,31.5,24.0,08.6,0000.0,0011.24,0005.80,0005.01
2021-12-18 14:17:00,,0830.5,4.99,0.00,22.4,21.8,00.0,31.5,24.0,08.6,0000.0,0010.99,0005.82,0005.02
2021-12-18 14:18:00,,0830.6,5.00,0.00,22.4,21.7,00.0,31.5,23.9,08.7,0000.0,0011.01,0005.82,0005.03
2021-12-18 14:19:00,,0830.6,5.01,0.00,22.3,21.6,00.0,31.4,23.8,08.7,0000.0,0011.21,0005.83,0005.06
2021-12-18 14:20:00,,0830.6,4.99,0.00,22.3,21.7,00.0,31.4,23.9,08.7,0000.0,0011.02,0005.81,0005.08
2021-12-18 14:21:00,,0830.5,4.99,0.00,22.4,22.4,00.0,31.5,24.1,08.7,0000.0,0010.70,0005.82,0005.09
2021-12-18 14:22:00,,0830.6,5.00,0.00,22.6,23.2,00.0,31.5,24.4,08.7,0000.0,0010.88,0005.88,0005.12
2021-12-18 14:23:00,,0830.5,5.01,0.00,22.7,23.2,00.0,31.5,24.5,08.7,0000.0,0011.06,0005.89,0005.13
2021-12-18 14:24:00,,0830.5,5.00,0.00,22.6,22.9,00.0,31.5,24.4,08.7,0000.0,0011.59,0005.94,0005.16
2021-12-18 14:25:00,,0830.5,5.00,0.00,22.6,22.6,00.0,31.5,24.3,08.8,0000.0,0011.79,0006.02,0005.20
2021-12-18 14:26:00,,0830.4,4.99,0.00,22.6,22.4,00.0,31.5,24.2,08.8,0000.0,0011.66,0006.05,0005.21
2021-12-18 14:27:00,,0830.4,5.01,0.00,22.5,22.1,00.0,31.5,24.1,08.9,0000.0,0011.73,0006.07,0005.22
2021-12-18 14:28:00,,0830.4,4.99,0.00,22.5,22.0,00.0,31.5,24.1,09.0,0000.0,0012.01,0006.05,0005.23
2021-12-18 14:29:00,,0830.5,5.00,0.00,22.5,21.8,00.0,31.5,24.0,09.0,0000.0,0012.02,0006.09,0005.24
2021-12-18 14:30:00,,0830.5,5.00,0.00,22.4,21.7,00.0,31.5,23.9,09.0,0000.0,0011.90,0006.09,0005.23
2021-12-18 14:31:00,,0830.5,5.01,0.00,22.4,21.6,00.0,31.5,23.9,09.1,0000.0,0011.61,0006.07,0005.22
2021-12-18 14:32:00,,0830.5,5.00,0.00,22.4,22.0,00.0,31.5,24.0,09.1,0000.0,0011.92,0006.06,0005.21
2021-12-18 14:33:00,,0830.5,4.99,0.00,22.5,22.8,00.0,31.5,24.3,09.1,0000.0,0012.25,0006.02,0005.20
2021-12-18 14:34:00,,0830.5,5.01,0.00,22.7,23.4,00.0,31.5,24.5,09.0,0000.0,0013.17,0006.00,0005.20
2021-12-18 14:35:00,,0830.5,5.00,0.00,22.7,23.2,00.0,31.6,24.5,09.0,0000.0,0013.83,0005.99,0005.19
2021-12-18 14:36:00,,0830.5,5.00,0.00,22.7,22.9,00.0,31.6,24.4,09.0,0000.0,0013.88,0005.98,0005.18
2021-12-18 14:37:00,,0830.6,5.00,0.00,22.7,22.7,00.0,31.6,24.3,09.1,0000.0,0014.15,0005.92,0005.17
2021-12-18 14:38:00,,0830.5,5.00,0.00,22.6,22.4,00.0,31.6,24.2,09.1,0000.0,0014.88,0005.85,0005.16
2021-12-18 14:39:00,,0830.5,5.00,0.00,22.6,22.2,00.0,31.6,24.1,09.1,0000.0,0015.09,0005.88,0005.17
2021-12-18 14:40:00,,0830.5,5.01,0.00,22.5,22.0,00.0,31.6,24.1,09.2,0000.0,0015.41,0005.88,0005.18
2021-12-18 14:41:00,,0830.5,5.00,0.00,22.5,21.9,00.0,31.5,24.0,09.1,0000.0,0015.30,0005.85,0005.17
2021-12-18 14:42:00,,0830.5,5.00,0.00,22.4,21.7,00.0,31.5,23.9,09.1,0000.0,0015.86,0005.80,0005.14
2021-12-18 14:43:00,,0830.4,5.00,0.00,22.4,21.6,00.0,31.5,23.9,09.1,0000.0,0015.63,0005.75,0005.10
2021-12-18 14:44:00,,0830.5,4.99,0.00,22.3,21.5,00.0,31.5,23.8,09.1,0000.0,0015.63,0005.68,0005.05
2021-12-18 14:45:00,,0830.6,5.00,0.00,22.4,22.1,00.0,31.5,24.0,09.1,0000.0,0014.24,0005.60,0004.99
2021-12-18 14:46:00,,0830.6,5.01,0.00,22.5,23.0,00.0,31.5,24.3,08.9,0000.0,0013.11,0005.52,0004.92
2021-12-18 14:47:00,,0830.6,4.99,0.00,22.7,23.5,00.0,31.5,24.6,08.8,0000.0,0012.64,0005.41,0004.86
2021-12-18 14:48:00,,0830.6,5.01,0.00,22.7,23.2,00.0,31.6,24.5,08.8,0000.0,0012.28,0005.36,0004.80
2021-12-18 14:49:00,,0830.7,5.00,0.00,22.7,22.9,00.0,31.6,24.4,08.8,0000.0,0011.83,0005.32,0004.74
2021-12-18 14:50:00,,0830.6,5.01,0.00,22.7,22.6,00.0,31.6,24.3,08.8,0000.0,0011.57,0005.27,0004.68
2021-12-18 14:51:00,,0830.6,5.00,0.00,22.6,22.4,00.0,31.6,24.2,08.8,0000.0,0011.15,0005.19,0004.61
2021-12-18 14:52:00,,0830.6,4.99,0.00,22.6,22.2,00.0,31.6,24.2,08.8,0000.0,0011.50,0005.13,0004.56
2021-12-18 14:53:00,,0830.6,5.01,0.00,22.5,22.0,00.0,31.6,24.1,08.8,0000.0,0010.90,0005.10,0004.53
2021-12-18 14:54:00,,0830.6,5.00,0.00,22.5,21.9,00.0,31.5,24.0,08.8,0000.0,0010.81,0005.11,0004.51
2021-12-18 14:55:00,,0830.6,4.99,0.00,22.5,21.8,00.0,31.5,24.0,08.9,0000.0,0011.19,0005.13,0004.51
2021-12-18 14:56:00,,0830.6,5.01,0.00,22.4,21.7,00.0,31.5,23.9,09.0,0000.0,0011.49,0005.15,0004.50
2021-12-18 14:57:00,,0830.6,4.99,0.00,22.4,21.6,00.0,31.5,23.9,09.0,0000.0,0011.53,0005.14,0004.51
2021-12-18 14:58:00,,0830.6,5.01,0.00,22.3,21.7,00.0,31.5,23.9,09.0,0000.0,0011.65,0005.18,0004.51
2021-12-18 14:59:00,,0830.6,4.99,0.00,22.4,22.4,00.0,31.5,24.1,09.0,0000.0,0011.51,0005.17,0004.53
